2014-11-18 00:01:28 r, 19.90m,0000000001Hz,0000493601c,0000001.071s, 000.1C,00002191
2014-11-18 00:11:30 r, 19.66m,0000000001Hz,0000397372c,0000000.862s, 000.6C,00002191
2014-11-18 00:21:30 r, 19.69m,0000000001Hz,0000408075c,0000000.886s, 001.2C,00002191
2014-11-18 00:31:31 r, 19.50m,0000000001Hz,0000342766c,0000000.744s, 001.6C,00002191
2014-11-18 00:41:30 r, 19.43m,0000000001Hz,0000322633c,0000000.700s, 001.9C,00002191
2014-11-18 00:51:31 r, 19.24m,0000000002Hz,0000272694c,0000000.592s, 002.2C,00002191
2014-11-18 01:01:28 r, 19.42m,0000000002Hz,0000318732c,0000000.692s, 002.5C,00002191
2014-11-18 01:11:31 r, 19.63m,0000000001Hz,0000387968c,0000000.842s, 002.5C,00002191
2014-11-18 01:21:29 r, 19.21m,0000000002Hz,0000265240c,0000000.576s, 002.5C,00002191
2014-11-18 01:31:30 r, 19.32m,0000000001Hz,0000294821c,0000000.640s, 002.9C,00002191
2014-11-18 01:41:30 r, 19.25m,0000000001Hz,0000274588c,0000000.596s, 002.9C,00002191
2014-11-18 01:51:30 r, 19.22m,0000000002Hz,0000267228c,0000000.580s, 002.9C,00002191
2014-11-18 02:01:28 r, 19.39m,0000000002Hz,0000312049c,0000000.677s, 002.9C,00002191
2014-11-18 02:11:30 r, 19.22m,0000000001Hz,0000266786c,0000000.579s, 003.2C,00002191
2014-11-18 02:21:29 r, 19.20m,0000000002Hz,0000262095c,0000000.569s, 003.2C,00002191
2014-11-18 02:31:31 r, 19.30m,0000000002Hz,0000288056c,0000000.625s, 003.2C,00002191
2014-11-18 02:41:30 r, 19.56m,0000000001Hz,0000360836c,0000000.783s, 003.2C,00002191
2014-11-18 02:51:31 r, 20.06m,0000000001Hz,0000574303c,0000001.246s, 003.2C,00002191
2014-11-18 03:01:28 r, 20.12m,0000000001Hz,0000609571c,0000001.323s, 002.9C,00002191
2014-11-18 03:11:30 r, 19.72m,0000000001Hz,0000421439c,0000000.915s, 002.5C,00002191
2014-11-18 03:21:30 r, 19.41m,0000000002Hz,0000316661c,0000000.687s, 002.2C,00002191
2014-11-18 03:31:30 r, 19.33m,0000000002Hz,0000295539c,0000000.641s, 002.5C,00002191
2014-11-18 03:41:28 r, 19.26m,0000000002Hz,0000277365c,0000000.602s, 002.9C,00002191
2014-11-18 03:51:30 r, 19.30m,0000000001Hz,0000286855c,0000000.623s, 003.2C,00002191
2014-11-18 04:01:30 r, 19.38m,0000000002Hz,0000311067c,0000000.675s, 003.5C,00002191
2014-11-18 04:11:31 r, 19.20m,0000000002Hz,0000262197c,0000000.569s, 003.5C,00002191
2014-11-18 04:21:28 r, 19.21m,0000000002Hz,0000265871c,0000000.577s, 003.8C,00002191
2014-11-18 04:31:31 r, 19.45m,0000000002Hz,0000332084c,0000000.721s, 003.8C,00002191
2014-11-18 04:41:28 r, 19.43m,0000000001Hz,0000323613c,0000000.702s, 003.8C,00002191
2014-11-18 04:51:30 r, 19.36m,0000000001Hz,0000306033c,0000000.664s, 003.8C,00002191
2014-11-18 05:01:29 r, 19.43m,0000000002Hz,0000325482c,0000000.706s, 003.8C,00002191
2014-11-18 05:11:30 r, 19.42m,0000000002Hz,0000323403c,0000000.702s, 003.5C,00002191
2014-11-18 05:21:28 r, 19.38m,0000000001Hz,0000310069c,0000000.673s, 003.5C,00002191
2014-11-18 05:31:30 r, 19.55m,0000000001Hz,0000359003c,0000000.779s, 003.5C,00002191
2014-11-18 05:41:28 r, 19.75m,0000000001Hz,0000433849c,0000000.942s, 003.5C,00002191
2014-11-18 05:51:31 r, 19.77m,0000000001Hz,0000438609c,0000000.952s, 003.2C,00002191
2014-11-18 06:01:31 r, 20.15m,0000000001Hz,0000624797c,0000001.356s, 002.5C,00002191
2014-11-18 06:11:31 r, 20.10m,0000000001Hz,0000601029c,0000001.304s, 001.9C,00002191
2014-11-18 06:21:28 r, 19.82m,0000000001Hz,0000459818c,0000000.998s, 001.2C,00002191
2014-11-18 06:31:31 r, 19.11m,0000000002Hz,0000240966c,0000000.523s, 000.9C,00002191
2014-11-18 06:41:31 r, 17.56m,0000000008Hz,0000057944c,0000000.126s, 000.3C,00002191
2014-11-18 06:51:30 r, 16.06m,0000000031Hz,0000014582c,0000000.032s, 000.1C,00002191
2014-11-18 07:01:28 r, 14.38m,0000000149Hz,0000000000c,0000000.000s, 000.1C,00002191
2014-11-18 07:11:30 r, 12.63m,0000000748Hz,0000000000c,0000000.000s, 000.1C,00002191
2014-11-18 07:21:30 r, 10.61m,0000004835Hz,0000000000c,0000000.000s, 000.1C,00002191
2014-11-18 07:31:29 r, 09.10m,0000019406Hz,0000000000c,0000000.000s,-000.4C,00002191
2014-11-18 07:41:29 r, 07.86m,0000060867Hz,0000000000c,0000000.000s,-000.4C,00002191
2014-11-18 07:51:31 r, 07.01m,0000133441Hz,0000000000c,0000000.000s,-000.4C,00002191
2014-11-18 08:01:29 r, 06.42m,0000228798Hz,0000000000c,0000000.000s,-000.7C,00002191
2014-11-18 08:11:31 r, 05.82m,0000397191Hz,0000000000c,0000000.000s,-000.7C,00002191
2014-11-18 08:21:28 r, 00.00m,0000597219Hz,0000000000c,0000000.000s, 000.1C,00002191
2014-11-18 08:31:30 r, 00.00m,0000596952Hz,0000000000c,0000000.000s, 000.6C,00002191
2014-11-18 08:41:28 r, 00.00m,0000597031Hz,0000000000c,0000000.000s, 001.6C,00002191
2014-11-18 08:51:30 r, 00.00m,0000596877Hz,0000000000c,0000000.000s, 002.5C,00002191
2014-11-18 09:01:28 r, 00.00m,0000596837Hz,0000000000c,0000000.000s, 003.2C,00002191
2014-11-18 09:11:30 r, 00.00m,0000596743Hz,0000000000c,0000000.000s, 004.1C,00002191
2014-11-18 09:21:28 r, 00.00m,0000596732Hz,0000000000c,0000000.000s, 005.1C,00002191
2014-11-18 09:31:31 r, 00.00m,0000596707Hz,0000000000c,0000000.000s, 005.4C,00002191
2014-11-18 09:41:30 r, 00.00m,0000596655Hz,0000000000c,0000000.000s, 005.4C,00002191
2014-11-18 09:51:31 r, 00.00m,0000596673Hz,0000000000c,0000000.000s, 005.8C,00002191
2014-11-18 10:01:28 r, 00.00m,0000596559Hz,0000000000c,0000000.000s, 005.8C,00002191
2014-11-18 10:11:30 r, 00.00m,0000596601Hz,0000000000c,0000000.000s, 005.8C,00002191
2014-11-18 10:21:28 r, 00.00m,0000596548Hz,0000000000c,0000000.000s, 006.4C,00002191
2014-11-18 10:31:28 r, 00.00m,0000596582Hz,0000000000c,0000000.000s, 007.0C,00002191
2014-11-18 10:41:30 r, 00.00m,0000596452Hz,0000000000c,0000000.000s, 007.4C,00002191
2014-11-18 10:51:30 r, 00.00m,0000596462Hz,0000000000c,0000000.000s, 007.7C,00002191
2014-11-18 11:01:28 r, 00.00m,0000596351Hz,0000000000c,0000000.000s, 007.7C,00002191
2014-11-18 11:11:32 r, 00.00m,0000596324Hz,0000000000c,0000000.000s, 008.3C,00002191
2014-11-18 11:21:29 r, 00.00m,0000596318Hz,0000000000c,0000000.000s, 008.7C,00002191
2014-11-18 11:31:32 r, 00.00m,0000596274Hz,0000000000c,0000000.000s, 008.7C,00002191
2014-11-18 11:41:29 r, 00.00m,0000596335Hz,0000000000c,0000000.000s, 008.7C,00002191
2014-11-18 11:51:31 r, 00.00m,0000596170Hz,0000000000c,0000000.000s, 008.7C,00002191
2014-11-18 12:01:28 r, 00.00m,0000596263Hz,0000000000c,0000000.000s, 009.0C,00002191
2014-11-18 12:11:30 r, 00.00m,0000596282Hz,0000000000c,0000000.000s, 009.0C,00002191
2014-11-18 12:21:28 r, 00.00m,0000596215Hz,0000000000c,0000000.000s, 009.3C,00002191
2014-11-18 12:31:30 r, 00.00m,0000596300Hz,0000000000c,0000000.000s, 009.3C,00002191
2014-11-18 12:41:28 r, 00.00m,0000596422Hz,0000000000c,0000000.000s, 009.3C,00002191
2014-11-18 12:51:31 r, 00.00m,0000596281Hz,0000000000c,0000000.000s, 009.3C,00002191
2014-11-18 13:01:28 r, 00.00m,0000596255Hz,0000000000c,0000000.000s, 009.6C,00002191
2014-11-18 13:11:31 r, 00.00m,0000596427Hz,0000000000c,0000000.000s, 009.3C,00002191
2014-11-18 13:21:28 r, 00.00m,0000596247Hz,0000000000c,0000000.000s, 009.3C,00002191
2014-11-18 13:31:31 r, 00.00m,0000596223Hz,0000000000c,0000000.000s, 009.6C,00002191
2014-11-18 13:41:30 r, 00.00m,0000596196Hz,0000000000c,0000000.000s, 009.6C,00002191
2014-11-18 13:51:30 r, 00.00m,0000596302Hz,0000000000c,0000000.000s, 009.6C,00002191
2014-11-18 14:01:28 r, 00.00m,0000596226Hz,0000000000c,0000000.000s, 009.9C,00002191
2014-11-18 14:11:30 r, 00.00m,0000596263Hz,0000000000c,0000000.000s, 009.6C,00002191
2014-11-18 14:21:28 r, 00.00m,0000596387Hz,0000000000c,0000000.000s, 009.6C,00002191
2014-11-18 14:31:30 r, 00.00m,0000596409Hz,0000000000c,0000000.000s, 009.3C,00002191
2014-11-18 14:41:28 r, 00.00m,0000596463Hz,0000000000c,0000000.000s, 009.0C,00002191
2014-11-18 14:51:31 r, 00.00m,0000596418Hz,0000000000c,0000000.000s, 009.0C,00002191
2014-11-18 15:01:28 r, 00.00m,0000596398Hz,0000000000c,0000000.000s, 008.7C,00002191
2014-11-18 15:11:31 r, 00.00m,0000596565Hz,0000000000c,0000000.000s, 008.3C,00002191
2014-11-18 15:21:28 r, 00.00m,0000596448Hz,0000000000c,0000000.000s, 008.0C,00002191
2014-11-18 15:31:30 r, 00.00m,0000596525Hz,0000000000c,0000000.000s, 008.0C,00002191
2014-11-18 15:41:30 r, 00.00m,0000596509Hz,0000000000c,0000000.000s, 008.0C,00002191
2014-11-18 15:51:28 r, 00.00m,0000596632Hz,0000000000c,0000000.000s, 007.7C,00002191
2014-11-18 16:01:28 r, 00.00m,0000596594Hz,0000000000c,0000000.000s, 007.4C,00002191
2014-11-18 16:11:28 r, 00.00m,0000512457Hz,0000000000c,0000000.000s, 007.4C,00002191
2014-11-18 16:21:30 r, 05.99m,0000341187Hz,0000000000c,0000000.000s, 007.4C,00002191
2014-11-18 16:31:28 r, 06.60m,0000192987Hz,0000000000c,0000000.000s, 007.0C,00002191
2014-11-18 16:41:28 r, 07.46m,0000088026Hz,0000000000c,0000000.000s, 006.7C,00002191
2014-11-18 16:51:30 r, 08.49m,0000033881Hz,0000000000c,0000000.000s, 006.7C,00002191
2014-11-18 17:01:28 r, 09.98m,0000008576Hz,0000000000c,0000000.000s, 006.7C,00002191
2014-11-18 17:11:31 r, 12.02m,0000001322Hz,0000000000c,0000000.000s, 006.7C,00002191
2014-11-18 17:21:29 r, 13.98m,0000000215Hz,0000000000c,0000000.000s, 006.7C,00002191
2014-11-18 17:31:30 r, 15.80m,0000000041Hz,0000011476c,0000000.025s, 006.7C,00002191
2014-11-18 17:41:28 r, 17.22m,0000000011Hz,0000042387c,0000000.092s, 006.7C,00002191
2014-11-18 17:51:30 r, 18.18m,0000000004Hz,0000102480c,0000000.222s, 006.7C,00002191
2014-11-18 18:01:28 r, 18.57m,0000000003Hz,0000146703c,0000000.318s, 007.0C,00002191
2014-11-18 18:11:38 r, 18.65m,0000000003Hz,0000158493c,0000000.344s, 007.0C,00002191
2014-11-18 18:21:28 r, 18.77m,0000000002Hz,0000176776c,0000000.384s, 007.0C,00002191
2014-11-18 18:31:32 r, 18.69m,0000000003Hz,0000164062c,0000000.356s, 007.0C,00002191
2014-11-18 18:41:29 r, 18.67m,0000000002Hz,0000161529c,0000000.351s, 007.0C,00002191
2014-11-18 18:51:32 r, 18.57m,0000000003Hz,0000146834c,0000000.319s, 007.0C,00002191
2014-11-18 19:01:28 r, 18.36m,0000000004Hz,0000121197c,0000000.263s, 007.0C,00002191
2014-11-18 19:11:28 r, 18.42m,0000000004Hz,0000127679c,0000000.277s, 007.0C,00002191
2014-11-18 19:21:28 r, 18.56m,0000000003Hz,0000145793c,0000000.316s, 007.0C,00002191
2014-11-18 19:31:30 r, 18.58m,0000000003Hz,0000149114c,0000000.324s, 007.4C,00002191
2014-11-18 19:41:28 r, 18.43m,0000000003Hz,0000129546c,0000000.281s, 007.4C,00002191
2014-11-18 19:51:30 r, 18.73m,0000000003Hz,0000171736c,0000000.373s, 007.0C,00002191
2014-11-18 20:01:28 r, 18.90m,0000000002Hz,0000198825c,0000000.431s, 007.0C,00002191
2014-11-18 20:11:31 r, 18.87m,0000000002Hz,0000192831c,0000000.418s, 006.7C,00002191
2014-11-18 20:21:28 r, 18.92m,0000000002Hz,0000203696c,0000000.442s, 006.4C,00002191
2014-11-18 20:31:32 r, 18.96m,0000000002Hz,0000211445c,0000000.459s, 006.4C,00002191
2014-11-18 20:41:31 r, 18.96m,0000000002Hz,0000211216c,0000000.458s, 006.1C,00002191
2014-11-18 20:51:30 r, 19.03m,0000000002Hz,0000224465c,0000000.487s, 005.8C,00002191
2014-11-18 21:01:28 r, 19.43m,0000000002Hz,0000325118c,0000000.706s, 005.8C,00002191
2014-11-18 21:11:30 r, 20.12m,0000000001Hz,0000609670c,0000001.323s, 005.4C,00002191
2014-11-18 21:21:28 r, 20.17m,0000000001Hz,0000637587c,0000001.384s, 004.8C,00002191
2014-11-18 21:31:29 r, 19.95m,0000000000Hz,0000520289c,0000001.129s, 004.5C,00002191
2014-11-18 21:41:29 r, 20.23m,0000000000Hz,0000674668c,0000001.464s, 004.1C,00002191
2014-11-18 21:51:29 r, 19.88m,0000000001Hz,0000483741c,0000001.050s, 004.1C,00002191
2014-11-18 22:01:31 r, 20.06m,0000000001Hz,0000575662c,0000001.249s, 003.8C,00002191
2014-11-18 22:11:29 r, 19.99m,0000000001Hz,0000539684c,0000001.171s, 003.8C,00002191
2014-11-18 22:21:29 r, 19.61m,0000000001Hz,0000378983c,0000000.822s, 003.8C,00002191
2014-11-18 22:31:28 r, 19.11m,0000000002Hz,0000240840c,0000000.523s, 003.8C,00002191
2014-11-18 22:41:31 r, 19.02m,0000000002Hz,0000222439c,0000000.483s, 004.1C,00002191
2014-11-18 22:51:28 r, 19.38m,0000000002Hz,0000310059c,0000000.673s, 004.5C,00002191
2014-11-18 23:01:31 r, 19.53m,0000000001Hz,0000357157c,0000000.775s, 004.8C,00002191
2014-11-18 23:11:28 r, 19.72m,0000000001Hz,0000418469c,0000000.908s, 004.8C,00002191
2014-11-18 23:21:31 r, 20.44m,0000000000Hz,0000813100c,0000001.765s, 004.8C,00002191
2014-11-18 23:31:28 r, 19.74m,0000000001Hz,0000429754c,0000000.933s, 004.5C,00002191
2014-11-18 23:41:29 r, 18.86m,0000000003Hz,0000192058c,0000000.417s, 004.5C,00002191
2014-11-18 23:51:29 r, 18.57m,0000000003Hz,0000146817c,0000000.319s, 004.8C,00002191
